FENGYUN 1C DEB, 31657

Orbit data source: Space-Track

FENGYUN 1C DEB, 31657 is space debris in SSO originally from a launch on Mon, 10 May 1999 UTC launched from the Taiyaun Space Center, China (TSC). Fengyun 1C debris stems from the Chinese weather satellite Fengyun-1C, which was intentionally destroyed by a Chinese anti-satellite missile in 2007. This event dramatically increased the amount of space debris, with thousands of trackable fragments posing hazards to satellites and human spaceflight. The Fengyun 1C debris cloud has become a focal point in discussions about space sustainability and the need for international regulations to prevent the creation of new debris.

Loading next visibility...
Identifier
31657, 1999-025CBP
Orbit
SSO
Country
Flag of CNCN / PRC
Related business
Manufacturer
Unknown
Mission
Spacecraft
Bus & Motor
Unknown
Mass
Unknown
Launch date (UTC)
1999-05-10 (27 years ago)
Launch vehicle
Unknown
Launch site
Taiyaun Space Center, China (TSC)
Object type
Payload
Rocket body
Debris
Shape & HBR
Unknown shape, 0.1 m
Radar Cross Section
Small (<0.1 m²)

Expand to show TLE details & history
Last TLE update: 3 weeks ago

TLE from 3 weeks ago
0 FENGYUN 1C DEB
1 31657U 99025CBP 26185.72771907  .00003199  00000-0  20809-2 0  9992
2 31657 102.2075 161.8822 0140800 281.1450  77.3900 13.98919731657154
Epoch: 2026-07-04T17:27Z
TLE epoch observation values (Epoch: 2026-07-04T17:27:54.927Z)
Latitude
-0.00004°
Longitude
-22.8339°
Altitude
879.304 km
Speed
7.423 km/s
True Right ascension
10h 47m 31s
True Declination
0° 00' 00"
Sunlit
Object was in daylight at epoch
Visualization orbit readout
Latitude
Unknown
Longitude
Unknown
Altitude
Unknown
Speed
Unknown
Apparent Right ascension
Unknown
Apparent Declination
Unknown
Sunlit
N/A
Visualization observer readout
Local Sidereal Time
06:23:50
Azimuth
Unknown
Elevation
Unknown
Doppler factor
Unknown
Orbital elements
Apogee altitude
997.327 km
Perigee altitude
792.517 km
Semi-major axis
7,273.059 km
Eccentricity
0.01408
Inclination
102.2075°
RAAN
161.8822°
Arg. of periapsis
281.145°
True anomaly
78.9704°
Mean anomaly
77.39°
Eccentric anomaly
78.17962°
Mean motion
3.49919 °/min
Orbital period
102.88 mins
BSTAR
0.0020809
Loading maneuver chart data...
Computing Atmospheric mass density...
Loading historical data...
Loading historical data...
Loading historical data...
Loading historical data...
Loading historical data...
Loading historical data...
Loading historical data...

Documentation

Showing up to 5 results
|